RH
32 31 33 34 34 35 31 28 26 25 22 23 22 25 30 44 53 54 45 42 50 51 41 28 29 18 18 12 10 9 8 8 9 14 16 16 9 6 7 7 16 19 31
37 35 35 38 40 39 39 33 28 25 22 22 21 21 24 34 34 41 45 46 66 64 47 39 29 29 19 15 18 15 23 10 9 10 14 12 11 7 7 8 8 12 21
43 38 39 37 39 40 42 39 31 26 25 23 23 21 24 31 35 36 38 38 77 72 50 39 29 21 18 13 15 21 15 13 10 9 8 9 10 17 13 12 12 10 15
60 65 43 35 31 37 37 42 35 32 28 24 24 23 22 26 34 36 35 36 51 48 36 27 28 25 21 18 14 18 14 15 12 10 6 6 8 17 16 9 28 14 20
82 65 73 58 46 46 45 50 48 43 36 31 28 26 24 25 30 35 38 39 49 48 35 29 32 22 25 20 17 17 19 18 13 11 10 9 10 12 12 16 19 26 20
76 69 73 87 86 72 63 71 61 50 44 39 36 31 30 36 40 41 42 56 62 49 37 32 31 28 30 24 21 21 22 17 13 9 9 15 18 24 24 20 37 38 22
23 35 58 71 69 77 97 100 94 71 57 45 44 40 37 39 49 68 58 49 42 39 37 36 41 31 43 35 30 19 17 16 12 9 6 13 20 62 60 30 54 71 25
20 19 16 18 32 49 63 80 94 100 93 72 64 56 50 50 52 80 89 67 57 41 39 41 41 45 42 32 36 18 15 14 13 11 7 15 20 56 67 55 30 75 77
39 25 23 21 17 15 24 54 60 85 99 100 88 95 83 73 51 54 84 88 72 54 47 44 41 52 50 34 29 15 14 14 13 13 9 30 56 52 61 66 76 62 70
68 61 46 45 35 28 19 19 37 40 49 72 84 89 99 92 98 96 88 92 91 84 74 58 48 44 60 43 26 17 12 15 12 15 26 50 50 48 76 75 82 68 78
64 60 60 56 46 40 33 21 19 22 59 58 50 70 88 80 83 100 92 97 100 95 97 97 68 44 58 45 23 13 15 16 14 15 38 57 47 57 79 84 84 94 97
55 53 50 50 44 40 33 30 24 20 26 66 69 56 60 66 62 70 74 66 74 83 84 67 57 57 68 44 35 17 16 19 15 17 34 59 47 55 93 91 94 100 100
55 48 42 38 37 29 31 31 30 31 29 45 82 52 46 58 55 78 82 83 84 86 77 60 62 67 74 38 26 18 17 19 16 16 41 62 57 70 95 93 100 100 100
77 79 71 69 53 39 28 29 32 27 32 58 72 66 51 44 58 67 89 77 64 69 68 49 50 53 55 38 24 18 15 18 18 18 43 56 81 69 91 53 77 72 74
75 70 71 80 90 89 73 46 43 26 28 38 47 73 68 60 54 53 66 69 61 52 46 43 40 40 54 39 18 16 15 18 20 23 53 54 83 55 58 100 100 100 100
43 49 54 63 73 82 94 98 64 98 90 56 73 67 64 75 71 67 62 73 75 76 68 60 47 60 53 31 15 18 23 19 22 25 29 63 70 66 98 100 100 100 100
33 27 27 32 39 61 74 82 95 99 94 100 100 95 83 72 62 79 93 84 80 63 61 55 48 50 46 26 14 20 21 22 26 25 22 72 100 91 100 100 100 100 100
29 30 31 24 22 27 32 52 67 78 87 100 100 100 100 100 88 76 81 88 83 73 61 64 64 53 41 23 14 17 25 22 28 25 24 49 100 68 100 100 100 100 100
25 28 24 27 26 22 21 26 33 51 56 67 92 98 90 100 100 93 62 50 49 50 69 63 54 36 36 30 17 20 36 22 26 23 21 33 74 83 94 95 100 100 100
18 18 20 21 21 24 23 21 22 26 34 48 62 71 92 100 100 100 88 80 73 47 53 53 37 38 30 23 24 38 42 21 20 20 29 23 35 100 67 98 100 100 100
19 21 18 17 16 17 18 21 22 22 24 29 43 49 60 64 97 100 100 92 97 81 59 48 30 28 23 27 33 53 39 24 23 24 23 33 45 77 100 97 86 100 100
18 18 18 19 17 16 16 15 18 20 22 24 26 36 46 55 65 96 100 100 98 88 80 65 45 43 35 31 55 84 46 36 34 33 30 30 38 91 100 100 100 100 100
23 20 17 17 20 20 16 15 16 18 20 20 25 31 30 44 54 56 76 99 100 100 94 94 83 80 69 62 77 76 59 53 48 34 43 37 36 57 98 100 100 100 100
18 16 16 14 15 17 19 22 18 16 20 21 21 26 28 31 41 54 51 45 83 100 100 98 98 99 97 84 69 70 77 69 52 47 39 51 38 89 87 93 100 100 100
12 11 11 12 12 12 13 16 19 19 17 20 21 23 25 28 35 42 47 52 43 71 100 100 100 99 100 100 100 89 90 80 56 79 59 69 46 74 100 100 100 100 100
6 6 7 9 9 9 10 12 15 16 16 15 18 19 24 24 28 37 40 43 39 38 55 45 76 100 98 100 100 100 100 89 68 100 100 100 96 67 100 100 100 100 100
Wind_Speed
44 44 44 42 39 37 36 35 33 33 32 32 33 35 34 33 33 31 30 30 31 33 32 31 32 33 33 37 37 35 35 36 38 40 42 45 51 57 55 53 58 53 51
47 46 47 45 43 41 40 41 39 38 37 35 34 37 38 37 35 33 34 33 36 37 36 37 36 36 37 37 35 35 35 37 42 43 45 48 49 56 61 60 60 60 57
52 52 51 50 48 46 44 43 44 42 41 39 39 39 40 40 37 35 36 37 37 41 42 42 41 37 34 34 35 37 37 37 40 45 52 51 51 53 60 61 63 65 64
54 56 57 56 55 52 50 47 46 45 45 44 43 41 42 42 42 42 42 41 41 41 43 42 40 39 36 36 38 39 39 38 37 43 49 54 47 49 53 62 61 65 65
59 59 60 58 57 56 55 51 50 49 48 48 47 46 45 45 47 46 44 42 44 44 44 45 43 39 36 38 41 42 40 36 41 45 49 46 42 40 43 55 62 64 67
64 63 62 60 59 56 55 54 52 53 53 54 52 51 51 49 50 48 46 42 45 45 45 45 44 40 39 39 38 41 38 40 42 45 39 34 30 31 37 42 51 61 67
59 60 62 63 64 62 57 54 55 55 57 57 53 56 54 53 51 49 46 44 46 46 47 47 45 41 37 38 37 43 43 41 44 42 34 28 23 26 27 35 45 45 56
63 60 59 60 61 62 63 59 55 56 58 60 59 57 58 57 54 49 50 50 48 48 45 46 45 42 42 38 36 42 46 40 43 40 32 23 17 21 25 25 35 39 40
69 67 64 62 62 61 62 63 63 59 58 59 63 59 58 60 61 57 57 55 52 51 49 47 47 43 43 39 37 41 45 41 40 37 25 14 10 14 21 23 25 36 35
75 75 73 70 68 65 65 64 68 66 66 64 62 64 63 62 59 57 60 59 56 54 55 52 48 45 44 41 40 43 42 37 36 31 16 8 10 11 15 20 26 29 33
79 80 79 77 74 73 71 70 70 68 69 72 69 62 64 67 64 62 60 58 58 56 55 55 54 50 45 43 40 41 37 33 36 30 11 7 8 9 15 15 24 26 27
85 84 85 84 81 79 77 76 75 72 71 73 74 71 71 69 69 69 68 65 60 59 57 56 54 52 51 46 43 41 34 31 30 30 9 6 6 10 14 14 19 24 23
83 86 87 87 87 86 84 82 79 79 77 76 78 78 72 69 68 68 69 67 63 61 59 59 58 55 56 50 46 41 34 28 28 29 8 9 5 16 15 13 12 15 22
77 80 81 81 83 84 87 85 87 86 84 82 83 84 81 76 71 71 72 72 70 68 64 62 60 59 55 50 44 40 33 27 27 26 13 11 11 20 22 19 15 21 28
72 73 79 83 79 77 79 84 88 92 88 88 88 88 87 83 82 77 77 76 76 73 69 67 60 58 56 50 44 38 30 27 25 24 18 15 27 29 25 21 32 25 26
74 75 74 76 78 81 80 78 83 86 84 86 90 89 88 87 84 84 82 78 77 72 69 66 60 61 57 51 45 37 33 30 26 25 20 20 36 34 28 21 47 52 30
80 80 80 80 77 77 81 83 84 80 89 89 80 81 86 88 87 85 82 78 75 72 70 69 65 61 58 53 45 36 32 30 26 25 22 26 43 43 38 35 45 43 38
90 88 87 87 87 84 81 80 84 88 87 87 95 90 81 83 83 84 84 82 80 79 75 69 65 62 62 54 49 43 35 33 31 27 27 31 48 49 43 36 38 55 47
96 97 97 94 93 91 90 88 83 83 85 88 89 93 95 85 80 82 84 81 81 76 73 73 65 62 62 58 56 44 42 37 34 30 31 37 43 55 53 49 44 49 49
102 104 105 105 102 100 97 95 94 89 86 85 88 90 89 85 82 79 78 80 77 74 72 72 72 68 63 58 53 50 46 41 35 36 37 43 47 61 60 57 54 49 54
109 108 108 108 110 109 108 104 101 99 96 90 89 85 88 90 86 83 78 77 78 78 76 72 67 63 59 61 57 52 50 47 41 42 39 45 56 57 68 68 66 54 55
114 114 114 114 112 111 111 112 110 107 105 102 95 91 86 85 86 83 83 81 77 77 77 76 73 68 63 66 60 56 53 50 46 50 44 48 56 63 68 73 71 63 57
116 120 120 121 119 119 114 111 111 113 110 111 104 97 93 90 86 83 80 82 83 75 76 76 75 71 68 65 64 60 56 54 55 51 52 53 51 61 64 71 69 73 56
124 125 126 124 123 120 119 119 113 114 111 111 111 105 100 94 91 85 82 78 81 84 84 77 77 72 69 67 65 61 61 60 55 58 56 56 51 65 66 67 63 73 66
130 130 129 129 125 124 120 118 120 115 110 113 110 105 104 99 96 91 88 82 77 79 81 87 80 76 73 72 69 65 64 63 59 65 63 60 56 65 72 70 68 68 73
117 121 124 126 126 126 127 124 120 117 114 119 113 108 105 107 100 97 92 88 78 75 74 72 76 76 76 70 72 70 69 67 64 65 66 63 63 65 73 65 63 68 73
Wind_Direction
251 252 251 252 253 253 255 258 256 253 256 256 257 260 259 257 257 258 261 261 264 269 271 278 279 279 284 284 286 287 281 271 270 268 262 254 247 243 242 238 233 232 232
251 247 250 252 253 254 256 256 255 253 253 251 255 259 258 258 258 258 256 264 265 266 273 278 282 280 286 288 288 292 285 281 273 275 272 263 253 244 242 240 237 234 234
255 256 254 255 253 253 254 254 255 253 251 249 254 255 256 255 256 255 257 263 259 265 274 278 284 280 284 290 290 290 289 289 283 280 273 271 263 250 241 236 236 233 233
247 250 255 258 259 256 257 253 252 254 255 251 253 254 253 253 255 257 259 262 260 265 272 277 280 278 282 290 293 290 294 290 289 286 278 278 268 254 244 236 233 231 231
245 247 250 254 253 254 254 253 251 252 254 254 251 252 249 251 253 255 257 257 258 265 273 276 280 283 289 290 293 293 297 292 289 291 284 279 268 255 247 237 233 231 230
250 249 249 250 255 253 255 252 250 246 247 248 250 250 248 250 253 253 255 257 260 265 271 274 278 283 289 291 294 294 297 295 294 293 292 283 267 262 251 241 231 227 226
249 250 250 252 250 249 252 256 253 252 251 248 251 250 251 251 252 256 251 254 259 263 267 272 277 282 286 291 290 298 301 298 301 297 298 286 271 257 258 240 231 234 225
253 251 251 250 251 254 249 246 249 250 252 253 253 255 254 254 252 254 251 256 260 263 268 271 276 279 282 288 289 298 302 300 306 308 301 288 272 259 255 245 228 237 236
253 253 253 254 254 252 252 252 249 246 249 248 250 252 252 255 252 249 253 257 256 261 266 272 274 275 284 288 288 297 299 300 306 317 305 291 278 261 251 243 229 233 236
254 254 253 252 253 254 253 252 252 255 251 247 247 250 250 251 250 252 252 254 255 258 263 269 273 274 281 284 289 295 297 299 304 323 301 280 290 264 251 244 231 230 225
254 255 254 254 255 255 254 253 252 251 252 254 254 247 249 248 249 251 254 255 257 258 260 266 271 272 277 282 286 290 293 296 304 321 303 290 275 264 226 224 219 220 219
254 257 258 255 255 255 255 255 252 252 250 250 251 252 247 248 248 250 250 251 255 258 261 264 269 271 276 278 279 288 288 293 301 309 292 273 261 215 205 209 205 201 201
254 256 254 254 255 255 254 254 251 251 249 247 250 251 251 248 246 247 248 249 251 253 257 263 264 266 275 274 278 280 281 287 295 305 265 249 269 187 177 174 192 211 209
255 254 255 254 254 253 252 250 251 252 248 246 247 249 250 249 247 247 248 250 252 253 256 261 262 267 270 271 273 274 277 277 290 299 258 225 212 169 156 176 204 219 223
251 252 254 254 255 254 252 248 250 251 248 246 244 246 248 248 247 249 250 251 253 254 255 259 261 265 266 269 270 266 270 276 276 288 249 210 177 169 163 208 242 215 221
251 249 249 249 251 252 251 250 247 247 250 249 246 245 246 247 248 250 250 251 252 253 254 255 258 261 262 263 264 259 269 268 263 272 235 199 174 177 168 211 220 236 227
258 255 250 247 246 246 249 250 249 247 246 247 248 250 249 250 250 247 248 249 250 251 253 256 256 256 257 257 256 260 264 258 249 261 229 193 180 186 195 176 190 203 207
260 257 256 252 247 244 244 245 246 249 246 246 246 248 249 248 249 251 251 250 250 250 253 253 251 251 253 249 255 258 259 253 240 249 233 210 197 200 203 192 194 203 220
260 260 257 254 252 249 245 243 244 243 244 247 244 246 247 248 250 250 252 253 253 254 254 253 248 250 251 249 252 255 255 248 239 236 240 214 201 204 206 208 213 209 212
261 258 257 256 252 250 249 247 244 244 245 242 243 245 244 245 245 247 249 249 249 253 252 252 253 248 247 248 250 248 249 242 240 238 235 226 211 208 214 215 216 226 220
262 261 259 257 253 250 248 247 246 246 245 244 242 241 243 242 242 241 244 247 246 247 250 249 247 246 242 246 246 242 245 241 240 237 241 234 216 215 210 216 218 227 224
266 261 259 258 256 252 250 246 245 244 245 244 243 243 243 241 240 239 239 239 243 245 246 245 243 243 246 242 238 240 241 242 240 233 238 233 221 220 223 217 226 227 233
264 264 262 258 253 254 254 250 242 243 243 243 241 241 241 240 239 237 236 237 237 237 238 238 239 239 235 236 236 236 237 240 237 234 235 232 230 224 228 231 230 228 231
263 261 260 258 257 254 249 248 246 239 241 239 238 239 238 238 240 236 234 233 236 238 238 234 235 235 234 234 234 232 233 235 240 233 234 232 233 230 229 232 234 233 239
269 266 262 260 256 252 249 248 244 243 238 237 234 236 236 234 235 239 236 233 232 236 240 239 234 233 233 235 232 229 231 232 236 232 232 233 233 227 230 236 239 233 236
265 261 258 255 253 252 249 245 242 242 240 233 235 234 235 235 232 234 235 232 231 232 234 237 238 233 230 230 229 227 229 231 235 233 234 233 227 229 226 232 240 244 240